Theta_e
280 280 280 281 281 282 282 282 280 277 279 281 283 287 287 288 290 290 290 293 296 298 301 303 307 310 313 317 328 326 325 324 323 322 321 319 318 319
281 279 279 280 281 281 282 281 281 280 276 281 283 284 286 287 289 289 289 292 293 297 299 302 306 308 310 314 324 323 322 322 322 322 321 319 319 318
279 279 280 280 280 280 281 281 280 281 279 281 283 285 284 284 286 288 289 289 290 294 298 299 301 304 307 311 318 321 321 321 321 321 321 320 319 318
279 279 279 282 280 279 280 280 280 280 280 278 281 282 283 284 285 285 288 290 290 293 296 298 299 302 305 309 312 318 318 318 318 318 318 318 319 318
279 279 279 279 279 279 279 279 280 282 280 279 279 281 282 283 283 285 286 287 290 292 293 297 301 304 307 311 311 315 315 315 315 314 314 315 317 317
281 280 279 279 279 280 280 279 280 279 279 279 279 280 281 283 283 282 283 285 286 289 292 295 296 297 300 307 310 311 312 313 313 313 312 312 313 313
280 281 281 282 285 284 281 279 279 279 279 279 279 279 280 281 281 282 282 283 285 287 290 289 291 292 296 303 307 308 311 312 312 312 311 311 310 310
281 281 280 284 285 288 288 288 285 279 279 279 279 278 279 281 282 281 282 281 281 287 285 285 289 290 295 298 304 310 311 311 310 310 310 310 309 309
281 281 282 284 284 283 285 287 288 289 289 283 280 280 280 281 282 282 282 283 282 284 285 283 288 288 294 299 302 305 310 310 309 309 309 309 308 307
280 280 280 280 282 283 283 282 281 282 283 284 283 284 285 285 284 284 283 282 283 285 286 282 287 288 293 297 301 305 307 310 309 308 308 308 306 306
280 280 280 280 283 285 282 282 281 281 285 287 287 287 288 288 287 283 280 279 280 282 286 285 288 287 290 292 302 306 307 309 308 308 308 307 306 305
279 280 283 282 284 285 282 281 280 281 283 282 282 284 286 286 289 287 285 282 282 281 286 284 287 289 289 301 303 306 307 307 307 308 307 306 305 306
279 279 280 284 285 286 286 283 282 283 283 282 281 281 282 282 282 283 283 283 281 280 286 287 287 287 286 288 292 302 306 307 308 308 306 305 305 306
280 281 281 285 285 285 285 286 287 286 284 281 280 280 280 281 282 282 283 283 284 283 284 287 284 285 285 284 286 292 297 308 308 307 307 306 305 305
280 282 284 285 285 285 286 286 286 284 282 281 281 281 281 282 282 282 283 282 282 283 285 284 283 283 285 282 283 285 287 303 308 307 307 305 305 304
282 281 283 284 285 284 283 283 283 283 283 281 281 281 282 281 281 282 280 280 280 281 285 285 285 285 283 284 284 284 286 286 301 307 306 305 306 305
283 282 280 279 279 279 280 280 281 282 281 282 281 281 281 281 281 281 281 280 279 280 281 283 286 286 285 284 283 285 285 286 291 298 304 302 304 304
281 279 278 279 279 278 278 278 279 280 279 280 280 281 281 281 281 282 282 281 279 280 280 282 283 282 282 284 287 284 285 285 289 293 304 301 300 303
275 275 276 277 277 278 279 279 278 279 280 279 280 280 281 281 281 280 280 280 279 280 281 282 282 282 278 277 284 288 285 286 288 290 300 302 300 301
276 276 276 277 278 278 278 278 279 279 279 279 279 279 280 280 279 279 280 280 279 279 279 280 282 282 281 280 282 286 288 287 289 290 295 302 301 300
276 277 278 278 278 278 279 279 279 279 280 279 279 279 280 280 279 279 279 281 281 280 279 280 282 286 284 283 282 284 287 288 293 293 298 298 296 296
277 277 278 278 279 279 279 279 279 280 280 281 280 280 280 280 279 279 279 278 279 280 280 281 282 285 285 283 282 284 286 289 290 290 292 297 297 293
277 277 278 278 279 279 280 279 279 278 280 280 281 280 280 279 280 280 280 279 279 279 280 282 282 284 283 283 283 284 285 286 288 290 292 294 296 295
Wind_Speed
4 5 4 4 3 4 4 4 4 2 3 4 3 1 6 6 10 9 11 20 25 22 21 22 22 21 19 21 25 28 28 25 23 22 21 20 18 17
4 5 5 3 5 4 4 4 4 5 4 3 4 7 6 8 9 9 10 20 20 21 21 20 21 21 21 19 25 29 28 26 25 24 24 22 20 18
5 6 7 5 4 4 4 4 4 5 8 5 6 10 8 5 8 7 9 10 9 19 20 22 22 23 21 17 9 26 28 28 28 26 24 22 21 20
7 6 8 6 6 6 5 6 6 6 6 10 5 6 8 4 5 8 7 8 8 15 21 22 22 21 22 17 11 21 26 28 28 26 25 22 21 21
7 7 8 6 8 5 5 6 5 6 6 6 6 3 5 4 3 4 6 7 8 17 19 18 18 19 21 18 12 17 24 26 27 26 24 22 21 22
8 9 8 9 10 8 7 8 7 7 5 6 6 5 4 5 3 5 6 5 9 9 10 11 16 19 20 18 13 18 24 26 27 27 24 20 19 21
10 10 10 13 19 16 8 7 7 7 7 6 7 4 5 5 6 1 5 7 8 6 5 6 8 9 10 14 13 21 28 28 28 29 27 23 20 22
11 10 10 17 18 23 24 25 16 9 10 7 7 8 7 6 5 4 3 7 6 3 8 10 7 7 9 10 19 20 29 31 30 29 28 23 23 23
9 9 9 8 14 12 18 24 23 26 23 11 11 11 9 7 5 6 5 6 9 7 7 12 5 9 8 9 16 12 30 34 31 30 29 26 24 24
10 10 11 12 12 14 12 14 14 13 13 10 10 7 7 5 7 5 7 5 5 7 6 9 3 9 8 9 18 18 18 34 38 34 33 29 26 25
10 11 12 13 18 23 16 14 13 13 15 24 23 22 23 24 19 4 6 6 7 9 4 8 5 9 9 10 9 12 23 32 35 36 34 31 28 25
11 12 22 19 24 25 15 12 13 12 10 10 10 15 18 15 23 14 8 8 7 6 3 4 6 3 5 4 3 4 2 19 34 37 35 33 31 15
10 9 9 22 23 24 24 12 13 11 14 11 9 8 8 9 7 7 6 6 6 7 5 4 2 3 2 5 5 4 5 7 12 22 35 36 35 24
10 8 10 21 23 23 19 19 23 20 8 10 9 9 9 9 8 7 8 8 9 11 7 4 5 2 2 4 4 7 10 10 15 16 18 25 35 30
9 14 23 24 25 21 23 22 21 10 7 7 7 7 9 8 8 6 8 8 8 8 8 7 8 6 7 7 8 7 11 6 16 17 17 19 19 17
16 13 15 19 21 17 14 12 8 8 6 7 7 7 6 7 8 7 7 6 6 7 9 9 9 11 9 7 8 10 7 7 4 14 16 17 17 17
15 8 7 8 8 8 8 8 7 7 7 7 8 8 7 7 8 6 7 5 8 6 7 7 10 11 11 12 9 9 8 9 6 10 16 17 17 17
9 5 6 8 7 8 8 8 7 11 8 7 7 7 7 9 8 7 7 8 8 9 8 7 8 5 7 9 18 11 6 8 7 10 13 17 16 16
5 6 6 7 7 7 7 8 8 8 9 8 8 8 8 8 11 8 9 9 9 8 8 8 8 9 10 12 4 26 11 8 7 7 8 16 16 16
5 7 8 7 7 8 8 8 8 8 8 8 8 9 9 8 8 9 8 10 10 9 8 8 10 11 11 10 5 2 27 10 9 8 8 10 10 16
7 7 7 8 8 8 8 8 9 9 8 9 9 9 10 10 9 9 10 16 16 10 11 11 10 17 8 3 8 9 4 29 14 10 9 13 14 11
7 8 7 7 8 8 8 7 7 8 8 8 10 10 10 9 10 12 11 10 10 10 10 8 7 7 8 10 11 10 8 7 17 28 27 11 18 15
8 8 8 8 7 7 8 7 8 8 7 7 6 9 10 10 9 10 11 10 9 9 9 7 8 8 9 9 11 6 6 8 5 5 8 17 19 19
Wind_Direction
238 240 238 245 227 226 212 194 182 258 301 304 313 7 349 332 328 329 326 325 330 331 334 329 322 324 321 332 203 183 179 182 176 174 173 174 177 176
260 250 244 236 244 223 219 212 200 212 238 275 277 308 311 317 316 325 314 321 323 330 328 326 323 323 321 332 215 183 177 173 171 173 174 177 178 178
249 241 252 229 230 236 220 214 219 209 250 265 270 303 306 297 311 311 310 310 319 323 324 322 314 314 316 317 259 180 173 171 170 172 175 178 179 177
259 251 256 259 239 224 219 227 220 214 232 264 266 284 289 287 285 304 308 306 310 314 321 316 310 306 305 297 303 201 175 171 168 172 172 181 179 172
244 236 249 240 257 247 230 242 237 234 217 239 261 230 285 284 290 286 297 291 303 315 320 314 315 311 301 312 259 203 175 171 169 169 168 180 178 174
247 242 238 239 247 247 241 239 238 246 237 238 252 244 245 292 260 289 310 312 309 310 310 331 331 328 324 312 266 197 185 173 172 169 166 174 175 166
249 250 244 243 250 248 246 241 228 240 247 248 256 249 238 271 278 245 291 305 307 277 327 329 327 321 313 307 296 203 183 176 175 170 169 171 169 160
256 252 244 257 261 258 258 256 234 225 234 232 246 246 238 243 271 276 279 316 315 321 340 310 314 303 307 307 318 207 185 174 173 173 169 168 168 162
279 278 273 257 256 249 258 264 264 261 241 227 236 244 248 215 224 260 250 275 278 293 305 297 310 290 286 282 277 296 197 178 174 175 167 163 172 168
273 270 266 265 258 257 246 241 241 245 251 260 259 251 237 218 215 218 253 251 265 280 261 281 288 294 290 284 277 267 246 193 175 175 169 164 172 168
267 264 262 261 259 262 259 250 237 239 243 246 249 251 253 249 245 218 240 253 270 277 249 264 282 304 287 276 265 262 219 188 179 172 168 164 169 162
265 260 263 264 263 260 252 246 249 245 226 225 240 255 260 258 257 241 237 235 241 284 270 232 274 289 308 329 239 217 132 192 183 175 171 164 163 167
261 260 253 261 269 269 269 247 243 240 240 229 226 226 230 238 242 242 233 222 234 235 249 313 317 304 292 312 317 301 220 179 191 181 175 166 166 173
270 259 256 266 270 272 271 265 263 256 237 213 216 217 222 224 231 223 223 228 233 237 237 218 243 258 305 308 283 326 331 205 183 187 177 171 168 172
275 268 271 271 268 267 272 273 265 246 233 224 225 214 217 221 223 218 223 229 232 234 238 226 236 248 244 258 278 301 323 301 185 183 176 177 174 168
276 274 268 267 265 260 260 259 244 239 241 217 220 221 193 206 213 213 216 220 226 237 227 227 224 238 249 245 253 267 267 278 276 182 177 173 176 173
274 262 252 257 255 252 251 246 236 231 238 235 218 213 209 213 217 203 213 211 232 231 239 235 240 238 242 240 246 243 251 264 254 270 179 173 180 174
304 305 288 263 245 245 243 244 236 236 225 225 222 215 215 206 215 210 209 219 236 241 237 235 236 229 243 243 227 241 228 249 262 292 186 174 175 176
298 286 279 273 268 264 254 240 240 231 227 225 219 219 219 209 213 211 211 212 222 225 228 228 222 223 236 245 259 212 224 231 246 254 228 187 175 176
278 275 276 276 272 265 259 258 254 237 226 222 219 215 214 215 219 220 216 218 224 226 224 219 222 227 231 241 247 264 209 220 222 227 243 179 169 155
290 283 275 272 270 264 263 259 248 250 230 222 221 219 219 221 219 219 219 222 226 223 225 231 229 231 239 227 243 242 243 215 228 213 223 171 162 159
290 289 287 280 275 266 257 254 260 254 250 244 216 220 222 215 221 223 222 219 230 228 231 231 219 216 220 219 236 239 230 241 222 237 252 219 177 174
295 293 291 284 282 282 268 254 246 249 254 239 243 215 208 211 212 219 223 221 221 220 227 223 209 209 222 224 235 239 232 234 229 234 227 235 187 131